Regional Weather Roundup
Issued by NWS Cleveland, OH

Home | Current Version | Previous Version | Graphics & Text | Print | Product List | Glossary On
Versions: 1 2 3 4 5 6 7 8 9 10 11 12 13 14 15 16 17 18 19 20 21 22 23 24 25 26 27 28 29 30 31 32 33 34 35 36 37 38 39 40 41 42 43 44 45 46 47 48 49 50
000
ASUS41 KCLE 271810
RWRCLE
OHIO REGIONAL WEATHER ROUNDUP
NATIONAL WEATHER SERVICE CLEVELAND, OH
100 PM EST FRI FEB 27 2015

NOTE: "FAIR" INDICATES FEW OR NO CLOUDS BELOW 12,000 FEET WITH NO
SIGNIFICANT WEATHER AND/OR OBSTRUCTIONS TO VISIBILITY.

OHZ001>008-015>018-024>027-034-035-043-044-271900-
   NORTHWEST OHIO

CITY           SKY/WX    TMP DP  RH WIND       PRES   REMARKS
DEFIANCE       SUNNY     13  -3  49 NW7       30.60S WCI   3
FINDLAY        SUNNY     13   1  59 W9        30.58R WCI   1
TOLEDO EXPRESS SUNNY     13  -1  54 W6        30.58S WCI   4
TOLEDO EXEC    SUNNY     13   0  56 SW10      30.59S WCI   0
LIMA           MOSUNNY   14   2  58 NW3       30.56S
$$

OHZ009>014-019>023-028>033-038-089-271900-
   NORTHEAST OHIO

CITY           SKY/WX    TMP DP  RH WIND       PRES   REMARKS
CLE-HOPKINS    MOSUNNY   13  -2  51 W8        30.59R WCI   2
CLE-LAKEFRONT  SUNNY     12   1  61 NW3       30.58R
CUY CO. ARPT   MOSUNNY   14   1  57 NW8       30.56  WCI   3
LORAIN-ELYRIA  SUNNY     11   0  61 SW5       30.57R WCI   3
ASHTABULA      MOSUNNY   11  -4  51 N6        30.54R WCI   1
AKRON-CANTON   PTSUNNY   15  -2  46 NW7       30.52R WCI   5
WOOSTER        SUNNY     12  -1  56 CALM      30.54S
MANSFIELD      MOSUNNY   12  -1  56 W8        30.52R WCI   0
YOUNGSTOWN     MOSUNNY   10  -4  53 NW5       30.51R WCI   2
$$

OHZ042-051>053-060>062-070>072-077>081-271900-
  SOUTHWEST OHIO

CITY           SKY/WX    TMP DP  RH WIND       PRES   REMARKS
CINC-COVINGTON MOSUNNY   19   2  47 N9        30.58F WCI   8
CINC-LUNKEN    PTSUNNY   19   1  45 NW6       30.63F WCI  11
HAMILTON       SUNNY     19   0  43 NW12      30.62F WCI   7
DAYTON         MOSUNNY   18   2  49 NW6       30.58R WCI  10
WRIGHT-PAT AFB MOSUNNY   17   0  47 VRB7      30.59R WCI   8
DAYTON GENERAL SUNNY     18   1  47 NW10      30.57S WCI   6
WILMINGTON     PTSUNNY   16   1  51 NW7       30.56S WCI   6
$$

OHZ036-037-039>041-045>050-054>059-063>069-073>076-082>088-271900-
  CENTRAL AND SOUTHEAST OHIO

CITY           SKY/WX    TMP DP  RH WIND       PRES   REMARKS
COLUMBUS       CLOUDY    16   2  54 W7        30.58R WCI   6
OSU AIRPORT    MOSUNNY   16   2  54 W10       30.57R WCI   4
BOLTON FIELD   PTSUNNY   16   1  53 W5        30.58R WCI   9
RICKENBACK AFB CLOUDY    16   6  64 W7        30.59S WCI   7
NEWARK         CLOUDY    16   4  59 W10       30.56S WCI   4
MARION         SUNNY     13   2  61 W7        30.57R WCI   3
LANCASTER      MOSUNNY   16   3  56 W7        30.58R WCI   6
ZANESVILLE     SUNNY     15  -2  46 NW6       30.56S WCI   6
NEW PHILLY     SUNNY     15  -3  44 NW9       30.57R WCI   3
$$



USA.gov is the U.S. government's official web portal to all federal, state and local government web resources and services.